South Bend, IN

1:56 AM EDT on October 01, 2016 (GMT -0400)
South Bend Regional

Weather History for KSBN - October, 2013

Change the Weather History Date:

Thursday, October 10, 2013

  Actual Average Record
Temperature  
Mean Temperature 60 °F 54 °F  
Max Temperature 74 °F 64 °F 85 °F (1913)
Min Temperature 45 °F 44 °F 26 °F (1925)
Degree Days  
Heating Degree Days 5 11  
Month to date heating degree days 37 98  
Since 1 July heating degree days 157 232  
Cooling Degree Days 0 0  
Month to date cooling degree days 30 8  
Year to date cooling degree days 828 772  
Growing Degree Days 10 (Base 50)    
Moisture  
Dew Point 46 °F    
Average Humidity 64    
Maximum Humidity 89    
Minimum Humidity 30    
Precipitation  
Precipitation 0.00 in 0.11 in 2.76 in (1954)
Month to date precipitation 1.15 1.11  
Year to date precipitation 32.19 29.91  
Snow  
Snow 0.00 in 0.00 in T in (1979)
Month to date snowfall 0.0 0.0  
Since 1 July snowfall 0.0 T  
Since 1 September snowfall 0.0 T  
Snow Depth 0.00 in    
Sea Level Pressure  
Sea Level Pressure 30.16 in    
Wind  
Wind Speed 2 mph (SE)    
Max Wind Speed 10 mph    
Max Gust Speed 13 mph    
Visibility 10 miles    
Events      
T = Trace of Precipitation, MM = Missing Value Source: NWS Daily Summary

Daily Weather History Graph

Daily Weather History Graph

Search for Another Location

Airport or City:

Trip Planner

Search our weather history database for the weather conditions in past years. The results will help you decide how hot, cold, wet, or windy it might be!

Date:

Astronomy

Oct. 10, 2013 Rise Set
Actual Time 7:52 AM EDT 7:11 PM EDT
Civil Twilight 7:24 AM EDT 7:39 PM EDT
Nautical Twilight 6:52 AM EDT 8:11 PM EDT
Astronomical Twilight 6:19 AM EDT 8:43 PM EDT
Moon 1:46 PM EDT (10/10) 11:45 PM EDT (10/10)
Length of Visible Light 12h 15m
Length of Day
11h 19m
Waxing Crescent, 35% of the Moon is Illuminated
Oct 10
Waxing Crescent
Oct 11
First Quarter
Oct 18
Full
Oct 26
Last Quarter
Nov 3
New

Hourly Weather History & Observations

Time (EDT) Temp. Dew Point Humidity Pressure Visibility Wind Dir Wind Speed Gust Speed Precip Events Conditions
12:54 AM 53.1 °F 43.0 °F 69% 30.20 in 10.0 mi Calm Calm - N/A   Clear
1:54 AM 52.0 °F 43.0 °F 71% 30.20 in 10.0 mi Calm Calm - N/A   Clear
2:54 AM 51.1 °F 43.0 °F 74% 30.20 in 10.0 mi East 3.5 mph - N/A   Clear
3:54 AM 50.0 °F 43.0 °F 77% 30.19 in 10.0 mi East 3.5 mph - N/A   Clear
4:54 AM 48.9 °F 43.0 °F 80% 30.19 in 10.0 mi East 4.6 mph - N/A   Clear
5:54 AM 48.0 °F 43.0 °F 83% 30.19 in 10.0 mi East 3.5 mph - N/A   Clear
6:54 AM 46.9 °F 43.0 °F 86% 30.19 in 10.0 mi East 3.5 mph - N/A   Clear
7:54 AM 46.0 °F 43.0 °F 89% 30.20 in 9.0 mi Calm Calm - N/A   Clear
8:54 AM 48.9 °F 45.0 °F 86% 30.21 in 10.0 mi East 3.5 mph - N/A   Clear
9:54 AM 54.0 °F 46.0 °F 75% 30.22 in 10.0 mi South 3.5 mph - N/A   Clear
10:54 AM 60.1 °F 48.9 °F 67% 30.21 in 10.0 mi Calm Calm - N/A   Clear
11:54 AM 66.0 °F 50.0 °F 56% 30.20 in 10.0 mi Calm Calm - N/A   Clear
12:54 PM 70.0 °F 50.0 °F 49% 30.19 in 10.0 mi Variable 4.6 mph - N/A   Clear
1:54 PM 72.0 °F 46.9 °F 41% 30.17 in 10.0 mi Variable 5.8 mph - N/A   Clear
2:54 PM 72.0 °F 48.0 °F 43% 30.14 in 10.0 mi Variable 3.5 mph - N/A   Clear
3:54 PM 73.0 °F 46.9 °F 39% 30.12 in 10.0 mi Calm Calm - N/A   Clear
4:54 PM 73.9 °F 46.0 °F 37% 30.11 in 10.0 mi SW 5.8 mph - N/A   Clear
5:54 PM 73.0 °F 46.9 °F 39% 30.10 in 10.0 mi Calm Calm - N/A   Clear
6:54 PM 69.1 °F 48.9 °F 49% 30.11 in 10.0 mi SSW 3.5 mph - N/A   Clear
7:54 PM 64.9 °F 48.0 °F 54% 30.11 in 10.0 mi Calm Calm - N/A   Clear
8:54 PM 60.1 °F 48.0 °F 64% 30.11 in 10.0 mi Calm Calm - N/A   Clear
9:54 PM 57.0 °F 48.0 °F 72% 30.12 in 10.0 mi Calm Calm - N/A   Clear
10:54 PM 54.0 °F 46.9 °F 77% 30.12 in 10.0 mi Calm Calm - N/A   Clear
11:54 PM 52.0 °F 46.0 °F 80% 30.11 in 10.0 mi Calm Calm - N/A   Clear